SP8AQK-13 Weather Reports


time (UTC)temp
F
wind
direction
speed
knots
gust
knots
rain 1hr
in
rain 24hr
in
rain mn
in
humidity
%
barometer
mb
20260507220402 59 0.0 0.0 0.00 0.00 0.00 100 1015.9
20260507214401 58 0.0 0.0 0.00 0.00 0.00 100 1016.0
20260507212400 59 0.0 0.0 0.00 0.00 0.00 100 1015.9
20260507210400 58 0.0 0.0 0.00 0.00 0.00 100 1015.9
20260507204359 58 0.0 0.0 0.00 0.00 0.00 100 1015.5
20260507202358 58 0.0 0.0 0.00 0.00 0.00 100 1015.5
20260507200357 59 0.0 0.0 0.00 0.00 0.00 100 1015.4
20260507194357 59 0.0 0.0 0.00 0.00 0.00 100 1015.0
20260507192356 60 0.0 0.0 0.00 0.00 0.00 100 1014.9
20260507190355 60 0.0 0.0 0.00 0.00 0.00 100 1014.4
20260507184354 60 0.0 0.0 0.00 0.00 0.00 100 1014.4
20260507182354 60 0.0 0.0 0.00 0.00 0.00 100 1014.4
20260507180353 59 0.0 0.0 0.00 0.00 0.00 100 1014.3
20260507174352 59 0.0 0.0 0.00 0.00 0.00 100 1014.0
20260507172351 61 0.0 0.0 0.00 0.00 0.00 100 1013.9
20260507170351 63 0.0 0.0 0.00 0.00 0.00 89 1013.5
20260507164350 63 0.0 0.0 0.00 0.00 0.00 90 1013.2
20260507162349 64 0.0 0.0 0.00 0.00 0.00 93 1012.9
20260507160348 65 0.0 0.0 0.00 0.00 0.00 94 1012.8
20260507154348 66 0.0 0.0 0.00 0.00 0.00 95 1012.6
20260507152347 69 0.0 0.0 0.00 0.00 0.00 64 1012.4
20260507150346 72 0.0 0.0 0.00 0.00 0.00 55 1011.8
20260507144346 72 0.0 0.0 0.00 0.00 0.00 53 1011.5
20260507142345 73 0.0 0.0 0.00 0.00 0.00 51 1011.6
20260507140344 74 0.0 0.0 0.00 0.00 0.00 49 1011.5
20260507134343 73 0.0 0.0 0.00 0.00 0.00 49 1011.4
20260507132343 74 0.0 0.0 0.00 0.00 0.00 48 1011.3
20260507130342 74 0.0 0.0 0.00 0.00 0.00 50 1011.5
20260507124341 73 0.0 0.0 0.00 0.00 0.00 50 1011.3
20260507122340 74 0.0 0.0 0.00 0.00 0.00 48 1011.4
20260507120340 74 0.0 0.0 0.00 0.00 0.00 48 1011.5
20260507114340 74 0.0 0.0 0.00 0.00 0.00 48 1011.7
20260507112338 74 0.0 0.0 0.00 0.00 0.00 47 1011.7
20260507110337 73 0.0 0.0 0.00 0.00 0.00 48 1011.6
20260507104337 75 0.0 0.0 0.00 0.00 0.00 47 1011.7
20260507102336 74 0.0 0.0 0.00 0.00 0.00 47 1011.5
20260507100335 73 0.0 0.0 0.00 0.00 0.00 47 1011.6
20260507094335 74 0.0 0.0 0.00 0.00 0.00 49 1011.3
20260507092334 73 0.0 0.0 0.00 0.00 0.00 53 1011.3
20260507090333 72 0.0 0.0 0.00 0.00 0.00 59 1011.4
20260507084332 70 0.0 0.0 0.00 0.00 0.00 66 1011.2
20260507082332 68 0.0 0.0 0.00 0.00 0.00 71 1011.3
20260507080331 66 0.0 0.0 0.00 0.00 0.00 76 1011.5
20260507074330 66 0.0 0.0 0.00 0.00 0.00 76 1011.6
20260507072329 66 0.0 0.0 0.00 0.00 0.00 75 1011.3
20260507070329 65 0.0 0.0 0.00 0.00 0.00 78 1011.4
20260507064328 64 0.0 0.0 0.00 0.00 0.00 82 1011.5
20260507062327 63 0.0 0.0 0.00 0.00 0.00 84 1011.4